Temperature
19 18 18 18 18 18 17 17 17 17 17 17 17 17 17 17 16 16 16 16 16 16 16 15 15 15 15 15 15 15 15 15 15 15 14 14 14 14 14 14 14 14 14
19 18 18 18 18 18 17 17 17 17 17 17 17 17 16 16 16 16 16 16 16 16 15 15 15 15 15 15 15 15 15 15 15 15 14 14 14 13 13 13 13 13 13
18 18 18 18 18 18 18 17 17 17 17 17 16 16 16 16 16 16 16 16 15 15 15 15 15 15 15 15 15 15 15 15 14 14 14 13 13 13 13 13 13 12 12
18 18 18 18 18 18 18 17 17 17 16 16 16 16 16 16 16 15 15 15 15 15 15 15 15 14 15 15 14 14 14 14 14 14 13 13 13 12 12 12 12 12 12
18 18 18 18 18 18 17 17 17 16 16 16 16 16 16 15 15 15 15 15 15 15 15 15 14 14 14 14 14 14 14 14 13 13 13 12 12 12 12 12 12 11 11
18 18 18 18 17 17 17 17 16 16 16 15 15 15 15 15 15 15 15 14 14 14 14 14 14 14 14 14 14 13 13 13 13 13 13 12 12 12 12 12 11 11 11
18 18 18 17 17 17 17 16 16 16 15 15 15 15 15 15 14 14 14 14 14 14 14 14 13 13 13 13 13 13 13 13 12 12 12 12 12 12 12 11 11 11 11
18 18 17 17 17 17 16 16 16 15 15 15 15 15 14 14 14 14 14 14 14 13 13 13 13 13 13 13 13 13 12 12 12 12 12 12 12 11 11 11 11 10 10
18 17 17 17 16 16 16 16 15 15 15 15 15 14 14 14 14 13 13 13 13 13 13 13 12 12 12 12 12 12 12 12 12 12 11 11 11 11 11 11 10 10 10
17 17 17 16 16 16 16 15 15 15 15 14 14 14 14 13 13 13 13 13 13 12 12 12 12 12 12 12 12 12 12 11 11 11 11 11 11 11 10 10 10 10 10
17 17 16 16 16 15 15 15 15 14 14 14 14 13 13 13 13 13 13 12 12 12 12 12 11 11 11 11 11 11 11 11 11 11 10 10 10 10 10 10 9 9 9
17 16 16 15 15 15 15 15 14 14 14 14 13 13 13 13 13 13 12 12 12 12 11 11 11 11 11 11 11 11 11 10 10 10 10 10 10 10 9 9 9 9 9
16 16 16 15 15 15 14 14 14 14 13 13 13 13 13 12 12 12 12 12 12 11 11 11 11 11 10 10 10 10 10 10 10 10 9 9 9 9 9 9 8 8 8
16 16 15 15 15 14 14 14 13 13 13 13 12 12 12 12 12 11 11 11 11 11 11 10 10 10 10 10 10 10 9 9 9 9 9 9 9 9 8 8 8 8 8
15 15 15 15 14 14 14 13 13 13 12 12 12 12 12 11 11 11 11 11 10 10 10 10 10 10 10 9 9 9 9 9 9 9 8 8 8 8 8 8 8 7 7
15 15 15 14 14 14 13 13 12 12 12 11 11 11 11 11 11 11 10 10 10 10 9 9 9 9 9 9 9 8 8 8 8 8 8 8 8 8 8 7 7 7 7
15 15 14 14 14 13 13 13 12 12 12 11 11 11 11 10 10 10 10 10 9 9 9 9 9 9 8 8 8 8 8 8 8 8 8 8 7 7 7 7 7 7 6
14 14 14 14 13 13 13 12 12 11 11 11 11 10 10 10 10 9 9 9 9 9 9 8 8 8 8 8 8 8 8 7 7 7 7 7 7 7 7 7 6 6 6
14 14 13 13 13 12 12 11 11 11 11 11 11 10 10 10 9 9 9 8 8 8 8 8 8 8 8 8 8 7 7 7 7 7 7 7 7 6 6 6 6 6 6
13 13 13 13 12 12 11 11 11 11 10 10 10 10 10 9 9 9 8 8 8 8 8 8 8 7 7 7 7 7 7 7 7 7 7 6 6 6 6 6 6 6 5
13 12 12 12 12 11 11 11 11 10 10 10 10 9 9 9 9 9 8 8 8 8 8 7 7 7 7 7 7 7 7 7 6 6 6 6 6 6 6 6 5 5 5
12 12 12 11 11 11 11 10 10 10 10 10 9 9 9 9 8 8 8 8 8 7 7 7 7 7 7 7 7 7 6 6 6 6 6 6 6 6 5 5 5 5 5
11 11 11 11 11 10 10 10 10 10 9 9 9 9 9 9 8 8 8 8 7 7 7 7 7 7 7 6 6 6 6 6 6 6 6 6 5 5 5 5 5 5 5
11 11 11 10 10 10 10 10 10 9 9 9 9 9 9 8 8 8 8 7 7 7 7 7 7 7 6 6 6 6 6 6 6 6 6 5 5 5 5 5 5 5 4
10 10 10 10 10 10 9 9 9 9 9 9 9 9 8 8 8 8 7 7 7 7 7 7 7 6 6 6 6 6 6 6 6 5 5 5 5 5 5 5 4 4 4
10 10 10 9 9 9 9 9 9 9 9 9 8 8 8 8 8 7 7 7 7 7 7 7 6 6 6 6 6 6 5 5 5 5 5 5 5 5 5 5 4 4 4
Wind_Speed
6 5 4 4 3 3 3 3 3 3 3 3 3 3 2 2 2 2 2 2 2 2 2 2 3 2 2 2 3 3 3 4 4 2 1 0 1 1 3 3 3 3 4
5 5 4 3 3 3 3 2 2 2 2 2 2 2 2 2 2 2 2 2 2 2 2 2 2 2 2 2 2 3 3 4 4 4 1 1 0 1 3 3 3 3 4
5 5 4 3 3 3 2 2 2 2 2 2 2 2 2 2 2 1 1 1 1 1 1 1 1 1 1 1 1 2 2 2 3 3 2 1 0 1 2 3 3 3 4
5 5 4 3 3 3 2 2 2 2 2 2 2 2 2 2 2 2 2 1 1 1 1 0 1 0 1 1 1 1 1 2 2 2 2 1 0 1 2 2 2 1 2
5 5 4 4 3 3 3 3 3 3 2 2 2 2 2 2 2 2 2 2 1 1 2 2 1 1 1 1 1 1 2 2 2 2 2 1 1 2 2 2 2 2 2
5 5 4 4 4 3 3 3 3 3 3 3 3 3 3 2 3 4 3 2 2 2 2 2 2 2 2 3 3 2 3 3 3 2 2 2 2 2 2 3 3 2 1
5 4 4 4 4 3 3 4 3 3 3 3 3 3 3 3 4 4 5 3 3 2 1 2 2 3 3 2 3 4 3 3 3 3 3 3 3 3 4 4 3 3 2
4 4 4 4 4 4 4 4 3 3 3 3 3 3 2 2 3 4 4 3 3 2 2 2 2 2 2 2 3 3 3 3 2 1 2 2 2 3 4 4 4 4 3
4 4 5 5 5 4 4 3 3 3 3 3 3 3 2 2 3 4 4 3 2 2 2 2 2 2 3 4 3 3 3 3 5 5 5 4 4 5 6 5 5 4 3
4 4 5 5 5 5 4 3 3 3 2 3 3 2 2 1 2 3 3 2 2 1 2 2 2 2 3 3 3 3 2 1 2 4 4 5 4 4 4 4 5 4 3
4 5 5 5 5 5 4 3 4 4 3 3 2 2 3 3 3 3 3 2 1 1 1 1 2 2 3 2 2 2 2 1 2 2 2 3 3 3 3 2 3 3 3
5 5 5 5 4 5 5 4 4 4 3 2 2 3 3 3 3 3 4 3 1 1 0 0 1 2 3 3 2 2 3 3 2 2 2 2 2 2 2 3 3 3 2
5 5 4 4 4 4 5 4 3 3 2 1 1 1 2 2 3 3 3 3 3 1 0 1 2 3 3 3 3 3 2 2 2 2 1 1 1 1 2 2 4 5 6
6 5 5 5 4 4 4 3 3 3 2 2 1 1 0 1 2 2 2 2 3 3 2 3 4 4 3 3 3 2 2 2 2 1 1 1 1 2 2 2 2 3 4
6 5 4 4 5 4 3 2 2 1 2 3 2 2 2 1 1 1 1 0 1 1 2 2 2 2 2 2 2 2 2 2 1 1 1 1 1 1 1 1 2 2 2
5 4 4 4 4 4 4 3 4 3 2 2 2 2 1 1 1 2 1 2 2 3 3 2 1 1 1 1 1 1 1 1 1 1 1 1 1 1 1 1 2 2 3
5 5 4 4 4 4 4 4 2 2 4 3 2 2 2 2 3 3 2 3 3 3 2 1 1 1 0 0 1 1 0 0 0 1 1 1 1 1 1 2 2 2 2
4 5 5 4 4 4 4 3 3 2 1 1 1 1 2 3 3 3 3 4 3 2 1 1 1 1 1 1 1 1 0 0 1 1 1 1 1 2 2 2 2 2 2
4 3 4 4 4 4 4 3 3 3 2 1 1 2 2 2 3 3 3 2 1 1 1 0 1 1 1 1 1 1 1 1 1 1 1 1 1 2 2 1 2 3 2
3 5 5 4 4 4 4 4 3 3 2 2 1 1 1 2 2 2 1 1 1 1 1 1 1 1 1 1 1 1 0 0 1 1 1 1 1 2 2 2 2 2 2
3 4 6 4 4 4 4 4 3 3 3 2 1 1 3 2 2 2 1 1 1 1 1 1 1 1 1 1 1 1 1 1 1 1 1 1 1 2 2 2 2 2 2
3 3 3 4 3 3 3 3 3 3 3 2 1 1 3 1 1 1 1 2 2 2 2 2 1 2 2 2 1 1 1 2 2 1 1 2 2 2 2 2 2 2 2
3 4 3 3 3 4 3 3 3 3 2 2 2 2 2 2 2 2 2 2 2 2 2 2 2 2 2 3 3 3 3 3 3 3 3 2 2 2 2 2 3 3 3
3 4 4 3 3 3 3 2 2 2 2 2 2 2 2 2 2 2 2 2 1 2 2 3 3 3 3 3 3 4 5 5 5 5 5 4 3 2 2 3 3 4 4
3 3 4 3 3 3 2 2 2 2 2 2 2 2 2 2 2 2 2 2 2 2 2 3 3 3 4 4 4 4 5 6 5 5 5 4 4 3 3 4 4 4 4
4 4 3 3 3 3 2 2 2 2 2 2 2 2 2 2 2 2 2 1 1 1 2 2 3 3 4 4 5 5 5 5 5 5 4 4 3 3 4 4 5 5 5
Wind_Direction
169 171 166 168 168 159 172 190 194 193 190 191 199 202 206 200 187 186 212 208 214 241 251 239 253 250 240 235 223 219 217 212 232 256 244 250 138 132 97 107 128 144 150
163 162 164 160 156 162 179 190 184 183 184 188 184 182 192 189 179 181 206 216 218 236 251 247 264 259 242 238 217 217 216 210 208 225 248 218 193 135 112 107 96 101 113
147 152 155 155 154 165 172 167 155 157 159 160 157 163 166 159 156 171 183 190 200 234 251 256 281 268 265 256 220 212 202 193 188 192 221 219 203 137 116 106 100 94 104
143 144 151 155 152 155 148 135 137 143 146 151 148 151 146 139 129 125 117 115 100 52 5 335 313 255 252 256 229 197 160 154 152 162 173 178 171 130 139 144 125 107 114
138 140 153 153 144 132 121 118 122 122 128 124 120 113 112 116 118 121 123 116 89 53 29 16 9 49 78 120 159 168 154 152 153 158 167 155 166 163 181 179 168 136 100
142 152 153 144 139 136 131 124 116 106 98 98 101 110 104 103 102 105 108 108 95 74 37 11 11 26 44 66 92 109 135 158 170 170 180 193 216 204 185 174 161 155 171
148 151 148 145 139 137 132 120 114 107 99 97 96 103 107 101 98 95 94 99 88 71 45 24 22 26 38 54 68 72 75 101 151 182 189 212 214 208 181 172 171 165 171
147 147 148 146 141 135 125 119 108 103 105 97 88 92 97 94 99 98 92 93 80 56 35 25 24 10 36 61 74 67 54 47 63 137 184 205 189 172 171 169 159 139 106
152 158 156 152 146 140 135 126 116 110 101 93 87 88 95 93 109 113 99 96 82 49 32 39 50 38 40 60 80 76 54 36 58 77 91 99 110 125 135 131 134 140 146
167 161 153 150 150 149 146 130 116 115 110 98 77 69 78 71 83 101 104 108 90 56 34 29 45 64 48 65 95 102 84 27 50 58 62 65 79 97 124 151 163 162 154
142 139 140 145 148 141 131 124 122 114 105 90 75 57 54 49 58 71 89 105 117 87 46 7 8 58 58 67 98 120 156 129 84 80 69 64 67 75 83 103 139 161 163
133 133 134 136 138 132 125 116 113 114 112 98 77 59 50 42 45 54 72 92 118 127 182 338 31 81 81 79 87 96 102 98 98 90 85 75 72 71 73 83 93 101 105
133 133 127 121 117 120 126 129 121 119 119 110 99 75 32 27 33 52 67 74 76 71 96 98 85 85 81 80 79 82 96 105 110 110 111 88 51 68 82 87 82 84 77
142 141 135 130 122 116 118 125 132 139 144 151 153 158 8 18 29 26 31 49 65 74 73 76 77 78 75 73 69 72 83 108 131 145 149 108 84 89 90 95 102 99 86
144 142 137 132 133 125 112 102 131 148 175 177 193 189 191 234 268 241 155 90 85 94 93 75 58 59 59 59 60 59 64 83 99 114 129 119 111 107 99 101 112 107 110
150 153 150 144 143 142 137 103 64 79 81 102 140 158 192 213 165 149 118 97 104 113 98 100 93 90 100 104 111 80 67 70 87 112 124 134 139 138 121 104 109 128 132
157 158 154 154 158 159 158 153 139 62 66 73 89 132 140 138 136 131 117 106 111 112 93 113 125 149 182 201 202 200 232 281 122 127 125 131 133 133 135 134 132 129 130
152 158 159 164 167 167 166 167 165 160 149 48 35 88 128 138 136 127 119 100 82 80 82 138 182 211 222 226 229 235 239 130 127 133 141 148 148 143 140 150 151 145 142
162 166 165 164 162 162 161 161 163 164 158 129 65 53 74 115 121 118 126 110 135 169 215 243 244 242 250 250 246 228 210 192 181 171 178 176 167 152 149 155 154 143 145
170 163 157 159 155 154 158 162 165 165 162 153 150 123 102 101 96 106 137 138 151 196 222 243 254 250 251 246 224 195 198 229 211 204 209 196 177 164 164 162 164 165 169
162 160 154 153 160 164 169 175 175 172 175 180 191 176 161 157 165 168 180 201 215 228 240 248 254 252 245 229 211 201 216 244 234 213 205 195 178 173 174 172 175 179 178
157 160 162 164 164 167 171 174 170 169 174 173 156 137 169 160 172 187 208 224 232 234 238 239 253 256 240 228 217 213 225 237 235 216 203 193 187 185 179 185 189 187 190
155 154 154 154 155 154 153 154 163 169 172 174 170 162 175 199 210 220 232 238 238 236 221 211 231 254 251 236 224 215 222 236 233 217 205 205 200 193 191 196 201 204 208
155 152 151 146 144 149 149 152 162 171 176 180 185 190 199 207 219 233 239 239 240 235 224 220 230 246 255 255 254 244 240 245 240 223 212 209 211 209 209 214 219 225 232
149 146 146 146 146 147 148 155 170 178 182 188 197 206 214 215 226 236 243 244 244 248 250 243 241 247 257 260 261 256 259 257 249 233 214 210 216 221 228 233 233 236 239
137 139 138 137 141 149 156 166 185 196 200 202 208 211 213 218 226 234 238 243 249 259 263 255 255 256 262 262 268 268 264 261 255 241 218 215 219 228 229 234 238 238 244
Height
1537 1539 1541 1542 1544 1545 1546 1547 1549 1550 1551 1551 1552 1553 1553 1553 1553 1553 1553 1554 1553 1553 1553 1553 1552 1552 1552 1552 1552 1552 1552 1552 1551 1551 1552 1553 1553 1553 1553 1554 1554 1554 1555
1536 1538 1539 1541 1543 1544 1545 1546 1547 1547 1548 1549 1550 1550 1550 1550 1550 1551 1550 1551 1550 1550 1549 1549 1549 1548 1548 1548 1548 1548 1548 1548 1548 1547 1548 1548 1549 1549 1550 1550 1550 1551 1551
1535 1536 1538 1540 1541 1542 1543 1544 1545 1546 1546 1547 1547 1548 1548 1548 1548 1548 1548 1548 1548 1547 1547 1546 1546 1545 1545 1545 1544 1544 1544 1544 1544 1544 1544 1544 1545 1545 1546 1546 1547 1547 1548
1534 1535 1537 1538 1540 1541 1541 1542 1543 1544 1544 1545 1545 1545 1545 1546 1546 1546 1546 1545 1545 1545 1545 1544 1543 1543 1542 1542 1542 1541 1541 1541 1541 1540 1540 1541 1541 1542 1542 1543 1543 1544 1544
1534 1535 1536 1537 1538 1539 1540 1540 1541 1541 1542 1542 1543 1543 1543 1543 1543 1543 1543 1543 1542 1543 1542 1542 1542 1541 1540 1540 1539 1539 1538 1538 1538 1538 1538 1538 1538 1539 1539 1540 1540 1540 1541
1533 1534 1535 1536 1537 1538 1538 1539 1539 1540 1540 1541 1541 1541 1541 1541 1541 1541 1541 1541 1541 1540 1540 1540 1540 1539 1539 1538 1537 1537 1537 1536 1535 1535 1535 1535 1535 1536 1536 1537 1537 1537 1537
1532 1533 1534 1535 1536 1537 1537 1538 1538 1539 1539 1539 1539 1539 1539 1539 1540 1540 1540 1539 1539 1538 1538 1538 1538 1538 1537 1536 1536 1535 1535 1534 1535 1534 1534 1533 1534 1534 1534 1534 1534 1535 1536
1530 1531 1532 1534 1534 1535 1536 1537 1537 1538 1538 1538 1537 1538 1538 1538 1538 1538 1538 1538 1537 1537 1537 1536 1536 1535 1535 1535 1534 1533 1533 1533 1533 1532 1532 1532 1532 1532 1532 1533 1533 1534 1535
1529 1530 1530 1532 1533 1534 1535 1536 1536 1537 1537 1537 1537 1537 1537 1537 1537 1537 1537 1536 1536 1535 1535 1535 1534 1534 1533 1533 1532 1532 1531 1531 1531 1531 1531 1531 1531 1531 1531 1531 1531 1532 1532
1528 1528 1529 1531 1532 1533 1534 1534 1535 1536 1536 1536 1536 1536 1536 1536 1535 1535 1535 1534 1534 1533 1533 1533 1533 1532 1532 1531 1531 1530 1530 1530 1530 1530 1530 1530 1530 1530 1530 1530 1530 1530 1530
1526 1527 1528 1529 1531 1532 1533 1533 1534 1535 1535 1535 1535 1535 1535 1535 1535 1534 1534 1533 1532 1532 1531 1531 1531 1530 1530 1530 1529 1529 1529 1529 1529 1529 1529 1529 1529 1529 1529 1529 1529 1529 1529
1525 1526 1527 1528 1529 1530 1531 1532 1533 1534 1534 1534 1534 1534 1534 1534 1534 1533 1532 1532 1531 1530 1530 1530 1529 1529 1528 1528 1528 1528 1528 1528 1528 1528 1528 1528 1528 1528 1528 1528 1528 1528 1528
1524 1525 1526 1527 1528 1529 1530 1531 1532 1533 1533 1533 1533 1533 1533 1532 1532 1531 1531 1530 1529 1529 1529 1529 1528 1528 1527 1527 1527 1527 1527 1527 1527 1527 1526 1527 1527 1527 1527 1527 1527 1527 1527
1523 1524 1524 1525 1526 1528 1528 1529 1530 1530 1531 1531 1531 1531 1531 1531 1530 1529 1529 1528 1528 1527 1527 1527 1527 1526 1526 1526 1526 1525 1525 1526 1526 1526 1525 1526 1526 1526 1526 1526 1525 1525 1525
1522 1523 1523 1524 1525 1526 1527 1527 1528 1529 1529 1530 1529 1529 1529 1528 1528 1528 1527 1526 1526 1526 1525 1525 1525 1525 1524 1524 1524 1524 1524 1524 1524 1524 1524 1524 1525 1525 1525 1525 1525 1524 1524
1520 1521 1522 1522 1523 1524 1525 1526 1527 1528 1528 1528 1527 1528 1527 1527 1526 1526 1525 1525 1525 1524 1524 1524 1524 1523 1523 1523 1523 1522 1523 1523 1523 1523 1523 1523 1523 1523 1523 1524 1524 1524 1524
1519 1519 1520 1521 1521 1522 1523 1524 1525 1525 1525 1525 1525 1525 1525 1525 1524 1524 1523 1523 1523 1523 1523 1523 1522 1522 1522 1522 1522 1522 1521 1522 1522 1522 1522 1522 1522 1522 1522 1522 1522 1523 1523
1517 1518 1518 1519 1519 1520 1521 1521 1522 1523 1523 1523 1523 1523 1523 1523 1522 1522 1522 1522 1521 1521 1521 1521 1521 1521 1521 1521 1521 1521 1521 1521 1520 1520 1520 1520 1521 1521 1521 1521 1521 1522 1522
1515 1515 1516 1517 1517 1518 1519 1520 1521 1521 1521 1521 1521 1521 1521 1521 1521 1520 1520 1520 1520 1520 1520 1520 1520 1520 1520 1520 1520 1520 1520 1519 1519 1519 1519 1519 1520 1520 1520 1520 1521 1521 1521
1512 1513 1514 1515 1515 1516 1517 1518 1518 1519 1519 1519 1519 1519 1519 1519 1518 1518 1519 1519 1519 1519 1519 1519 1519 1519 1519 1519 1518 1518 1518 1518 1518 1518 1518 1518 1519 1519 1519 1520 1520 1520 1521
1510 1511 1512 1513 1513 1514 1515 1516 1516 1517 1517 1518 1518 1518 1518 1518 1518 1517 1518 1518 1518 1518 1519 1519 1518 1518 1518 1518 1517 1517 1517 1517 1517 1517 1517 1517 1517 1518 1518 1518 1519 1520 1520
1508 1509 1509 1510 1511 1512 1513 1514 1515 1515 1516 1516 1516 1517 1517 1517 1517 1517 1517 1517 1517 1518 1518 1518 1518 1517 1517 1517 1516 1516 1516 1515 1515 1516 1516 1516 1516 1516 1517 1517 1518 1518 1519
1506 1507 1508 1508 1509 1510 1511 1512 1513 1514 1514 1515 1515 1516 1516 1516 1516 1516 1516 1517 1517 1517 1517 1517 1517 1516 1516 1516 1515 1515 1515 1514 1514 1514 1514 1514 1514 1515 1515 1516 1516 1516 1517
1505 1505 1506 1507 1508 1509 1510 1511 1512 1513 1513 1514 1515 1515 1515 1515 1515 1515 1515 1516 1516 1516 1516 1516 1515 1515 1515 1514 1514 1514 1513 1513 1513 1513 1513 1513 1513 1513 1514 1514 1514 1514 1515
1503 1504 1505 1505 1507 1508 1509 1510 1511 1512 1512 1513 1514 1514 1514 1514 1514 1514 1514 1515 1515 1515 1514 1514 1514 1514 1513 1513 1513 1512 1512 1512 1511 1511 1511 1511 1511 1511 1511 1511 1512 1512 1513
1502 1503 1504 1505 1506 1507 1508 1509 1510 1511 1511 1512 1512 1512 1512 1513 1513 1513 1513 1513 1513 1513 1513 1512 1512 1512 1512 1511 1511 1511 1510 1510 1509 1509 1509 1509 1509 1508 1509 1509 1509 1509 1510